Location: La Trinit�
(48.1620°N, 3.4512°W)
Time: 18:37:50
(UTC+00:00)

Cosmos 2278 Rocket - Pass Details

Date: 08 May 2021
Orbit: 841 x 845 km, 71.0° (Epoch: 15 June)

Event Time Altitude Azimuth Distance (km) Brightness Sun altitude
Exits shadow 22:47:08 17° 223° (SW) 2,009 3.9 -21.9°
Maximum altitude 22:51:30 63° 301° (WNW) 942 2.6 -22.2°
Drops below altitude 10° 22:57:07 10° 23° (NNE) 2,470 5.3 -22.5°
Sets 22:59:36 0° 27° (NNE) 3,409 6.0 -22.6°
